Date String (YYYY-MM-DD hh:mm:ss) UTC,Instrument flags,Ambient pressure (hPa),Sample flow (lpm),Bypass flow (lpm),Sample temperature (°C),Ambient temperature (°C),ASC tube jacket temperature (°C),LED temperature (°C),Box temperature (°C),Sample RH (%),Span deviation,Mass concentration (μg/m³),Mass concentration (μg/m³),Mass concentration (μg/m³)
DateTimeUTC,F1_M11,P_M11,Q1_M11,Q2_M11,T1_M11,T2_M11,T3_M11,T4_M11,T5_M11,U1_M11,ZSPAN_M11,X0_M11,X2_M11,X1_M11
2023-01-27 06:00:00,,0822.9,4.99,0.00,22.4,22.5,00.0,31.1,24.3,07.6,0000.0,0001.37,0000.71,0000.44
2023-01-27 06:01:00,,0822.9,5.00,0.00,22.3,21.8,00.0,31.1,24.1,07.5,0000.0,0001.38,0000.68,0000.44
2023-01-27 06:02:00,,0822.9,5.00,0.00,22.3,21.5,00.0,31.1,24.0,07.6,0000.0,0001.36,0000.67,0000.44
2023-01-27 06:03:00,,0823.1,4.99,0.00,22.3,21.2,00.0,31.1,24.0,07.8,0000.0,0001.28,0000.68,0000.45
2023-01-27 06:04:00,,0823.0,5.00,0.00,22.3,21.0,00.0,31.1,23.9,07.8,0000.0,0001.27,0000.69,0000.45
2023-01-27 06:05:00,,0822.9,4.98,0.00,22.2,20.8,00.0,31.1,23.8,07.7,0000.0,0001.28,0000.68,0000.45
2023-01-27 06:06:00,,0822.9,5.00,0.00,22.2,20.7,00.0,31.1,23.8,07.8,0000.0,0001.27,0000.68,0000.45
2023-01-27 06:07:00,,0823.0,5.00,0.00,22.1,20.5,00.0,31.1,23.7,07.8,0000.0,0001.22,0000.67,0000.45
2023-01-27 06:08:00,,0822.9,5.00,0.00,22.1,20.4,00.0,31.1,23.7,07.7,0000.0,0001.22,0000.69,0000.45
2023-01-27 06:09:00,,0823.0,5.00,0.00,22.1,20.3,00.0,31.1,23.7,07.8,0000.0,0001.28,0000.71,0000.46
2023-01-27 06:10:00,,0822.9,4.98,0.00,22.0,20.3,00.0,31.1,23.7,08.0,0000.0,0001.33,0000.74,0000.46
2023-01-27 06:11:00,,0822.9,5.01,0.00,22.0,20.6,00.0,31.0,23.7,07.8,0000.0,0001.31,0000.73,0000.46
2023-01-27 06:12:00,,0822.8,4.98,0.00,22.1,21.7,00.0,31.0,24.0,07.9,0000.0,0001.38,0000.79,0000.47
2023-01-27 06:13:00,,0822.9,5.00,0.00,22.2,22.7,00.0,31.0,24.2,08.1,0000.0,0001.69,0000.83,0000.47
2023-01-27 06:14:00,,0822.7,4.99,0.00,22.3,22.8,00.0,31.0,24.3,07.8,0000.0,0003.37,0000.92,0000.48
2023-01-27 06:15:00,,0822.7,5.00,0.00,22.3,22.1,00.0,31.1,24.2,07.7,0000.0,0003.62,0000.95,0000.48
2023-01-27 06:16:00,,0822.6,5.02,0.00,22.3,21.6,00.0,31.1,24.1,07.9,0000.0,0003.75,0000.99,0000.49
2023-01-27 06:17:00,,0822.7,5.01,0.00,22.3,21.2,00.0,31.1,23.9,07.9,0000.0,0003.98,0001.05,0000.50
2023-01-27 06:18:00,,0822.6,4.98,0.00,22.2,21.0,00.0,31.1,23.9,07.8,0000.0,0004.23,0001.10,0000.51
2023-01-27 06:19:00,,0822.6,5.00,0.00,22.2,20.8,00.0,31.1,23.8,07.8,0000.0,0005.49,0001.12,0000.52
2023-01-27 06:20:00,,0822.5,4.97,0.00,22.2,20.6,00.0,31.1,23.7,07.6,0000.0,0005.71,0001.12,0000.52
2023-01-27 06:21:00,,0822.4,5.01,0.00,22.1,20.4,00.0,31.1,23.6,07.9,0000.0,0006.25,0001.19,0000.53
2023-01-27 06:22:00,,0822.4,5.00,0.00,22.1,20.3,00.0,31.1,23.5,08.0,0000.0,0007.15,0001.31,0000.54
2023-01-27 06:23:00,,0822.5,5.01,0.00,22.0,20.1,00.0,31.0,23.5,08.2,0000.0,0007.97,0001.39,0000.55
2023-01-27 06:24:00,,0822.5,5.01,0.00,22.0,20.6,00.0,31.0,23.6,08.1,0000.0,0008.85,0001.50,0000.55
2023-01-27 06:25:00,,0822.6,4.99,0.00,22.1,21.8,00.0,30.9,24.0,08.0,0000.0,0008.19,0001.51,0000.57
2023-01-27 06:26:00,,0822.6,4.98,0.00,22.2,22.7,00.0,31.0,24.2,08.1,0000.0,0008.17,0001.52,0000.57
2023-01-27 06:27:00,,0822.5,4.98,0.00,22.3,22.6,00.0,31.0,24.3,08.1,0000.0,0008.61,0001.55,0000.59
2023-01-27 06:28:00,,0822.6,5.01,0.00,22.3,22.0,00.0,31.1,24.2,08.0,0000.0,0009.18,0001.55,0000.59
2023-01-27 06:29:00,,0822.7,5.01,0.00,22.3,21.6,00.0,31.1,24.0,08.1,0000.0,0009.09,0001.52,0000.59
2023-01-27 06:30:00,,0822.6,4.99,0.00,22.3,21.2,00.0,31.1,24.0,08.2,0000.0,0008.61,0001.52,0000.58
2023-01-27 06:31:00,,0822.6,5.01,0.00,22.2,21.0,00.0,31.1,23.9,07.7,0000.0,0008.44,0001.51,0000.57
2023-01-27 06:32:00,,0822.6,5.01,0.00,22.2,20.8,00.0,31.1,23.8,07.7,0000.0,0008.18,0001.40,0000.56
2023-01-27 06:33:00,,0822.6,5.00,0.00,22.2,20.6,00.0,31.1,23.7,07.9,0000.0,0007.66,0001.31,0000.56
2023-01-27 06:34:00,,0822.6,5.00,0.00,22.1,20.5,00.0,31.1,23.7,08.0,0000.0,0006.77,0001.19,0000.54
2023-01-27 06:35:00,,0822.5,5.00,0.00,22.1,20.4,00.0,31.1,23.6,08.0,0000.0,0005.05,0001.05,0000.52
2023-01-27 06:36:00,,0822.5,5.00,0.00,22.0,20.3,00.0,31.1,23.5,07.8,0000.0,0004.40,0000.93,0000.50
2023-01-27 06:37:00,,0822.5,5.01,0.00,22.0,20.9,00.0,31.0,23.7,07.9,0000.0,0004.02,0000.90,0000.50
2023-01-27 06:38:00,,0822.6,4.99,0.00,22.1,22.0,00.0,31.0,24.0,08.2,0000.0,0003.25,0000.82,0000.49
2023-01-27 06:39:00,,0822.5,5.00,0.00,22.3,22.8,00.0,31.0,24.3,08.0,0000.0,0002.44,0000.77,0000.47
2023-01-27 06:40:00,,0822.5,4.99,0.00,22.3,22.4,00.0,31.0,24.2,07.7,0000.0,0002.48,0000.78,0000.47
2023-01-27 06:41:00,,0822.4,5.01,0.00,22.3,21.8,00.0,31.1,24.1,07.9,0000.0,0002.41,0000.78,0000.47
2023-01-27 06:42:00,,0822.4,5.00,0.00,22.3,21.4,00.0,31.1,24.0,08.0,0000.0,0002.88,0000.77,0000.47
2023-01-27 06:43:00,,0822.4,5.00,0.00,22.2,21.1,00.0,31.1,23.9,07.9,0000.0,0003.60,0000.79,0000.47
2023-01-27 06:44:00,,0822.4,5.00,0.00,22.2,20.8,00.0,31.1,23.8,08.2,0000.0,0004.47,0000.82,0000.47
2023-01-27 06:45:00,,0822.3,5.00,0.00,22.2,20.6,00.0,31.1,23.7,08.0,0000.0,0004.75,0000.83,0000.47
2023-01-27 06:46:00,,0822.4,5.00,0.00,22.1,20.4,00.0,31.1,23.6,08.1,0000.0,0006.18,0000.85,0000.48
2023-01-27 06:47:00,,0822.3,5.01,0.00,22.1,20.3,00.0,31.1,23.5,08.0,0000.0,0006.36,0000.88,0000.49
2023-01-27 06:48:00,,0822.3,5.00,0.00,22.0,20.2,00.0,31.0,23.5,07.9,0000.0,0006.32,0000.86,0000.49
2023-01-27 06:49:00,,0822.3,5.00,0.00,22.0,20.5,00.0,31.0,23.6,07.8,0000.0,0006.25,0000.82,0000.48
2023-01-27 06:50:00,,0822.2,5.01,0.00,22.1,21.7,00.0,31.0,23.9,07.8,0000.0,0005.79,0000.81,0000.47
2023-01-27 06:51:00,,0822.3,5.00,0.00,22.2,22.8,00.0,31.0,24.2,07.7,0000.0,0005.46,0000.79,0000.47
2023-01-27 06:52:00,,0822.3,4.99,0.00,22.3,22.6,00.0,31.0,24.3,07.9,0000.0,0005.28,0000.78,0000.48
2023-01-27 06:53:00,,0822.3,5.00,0.00,22.3,22.0,00.0,31.1,24.1,08.1,0000.0,0004.81,0000.77,0000.47
2023-01-27 06:54:00,,0822.2,5.02,0.00,22.3,21.5,00.0,31.1,24.0,08.0,0000.0,0004.25,0000.81,0000.48
2023-01-27 06:55:00,,0822.2,4.99,0.00,22.2,21.2,00.0,31.1,23.9,07.9,0000.0,0003.28,0000.80,0000.48
2023-01-27 06:56:00,,0822.3,5.01,0.00,22.2,20.9,00.0,31.1,23.8,08.0,0000.0,0003.37,0000.83,0000.48
2023-01-27 06:57:00,,0822.4,5.00,0.00,22.2,20.7,00.0,31.1,23.7,07.7,0000.0,0001.97,0000.82,0000.48
2023-01-27 06:58:00,,0822.4,5.00,0.00,22.1,20.6,00.0,31.1,23.6,08.0,0000.0,0001.67,0000.79,0000.48
2023-01-27 06:59:00,,0822.4,4.98,0.00,22.1,20.5,00.0,31.1,23.6,07.8,0000.0,0001.78,0000.81,0000.48
